Weather History for La Grange, TX

Change the Weather History Date:

Saturday, December 14, 2013

  Actual Average (KAUS) Record (KAUS)
Temperature  
Mean Temperature 48 °F 50 °F  
Max Temperature 54 °F 64 °F 83 °F (1995)
Min Temperature 42 °F 37 °F 22 °F (2004)
Degree Days  
Heating Degree Days 17 15  
Month to date heating degree days 195  
Since 1 July heating degree days 480  
Cooling Degree Days 0 0  
Month to date cooling degree days 5  
Year to date cooling degree days 2746  
Moisture  
Dew Point 24 °F    
Average Humidity 44    
Maximum Humidity 76    
Minimum Humidity 4    
Precipitation  
Precipitation 0.00 in 0.07 in 1.32 in (1967)
Month to date precipitation 1.03  
Year to date precipitation 33.93  
Snow  
Snow 0.00 in - - ()
Month to date snowfall  
Since 1 July snowfall  
Snow Depth -    
Sea Level Pressure  
Sea Level Pressure 30.07 in    
Wind  
Wind Speed 6 mph (NNW)    
Max Wind Speed 18 mph    
Max Gust Speed 29 mph    
Visibility 6 miles    
Events      
T = Trace of Precipitation, MM = Missing Value Source: NWS Daily Summary

Daily Weather History Graph

Daily Weather History Graph

Search for Another Location

Airport:

Trip Planner

Search our weather history database for the weather conditions in past years. The results will help you decide how hot, cold, wet, or windy it might be!

Date:

Astronomy

Dec. 14, 2013 Rise Set
Actual Time 7:15 AM CST 5:29 PM CST
Civil Twilight 6:49 AM CST 5:56 PM CST
Nautical Twilight 6:19 AM CST 6:25 PM CST
Astronomical Twilight 5:50 AM CST 6:55 PM CST
Moon 3:46 PM CST (12/14) 4:44 AM CST (12/14)
Length of Visible Light 11h 07m
Length of Day
10h 14m
Waxing Gibbous, 94% of the Moon is Illuminated
Dec 14
Waxing Gibbous
Dec 17
Full
Dec 25
Last Quarter
Jan 1
New
Jan 7
First Quarter

Hourly Weather History & Observations

Time (CST) Temp. Windchill Dew Point Humidity Pressure Visibility Wind Dir Wind Speed Gust Speed Precip Events Conditions
12:15 AM 44.8 °F - 37.4 °F 75% 29.91 in 0.8 mi Calm Calm - N/A   Haze
12:35 AM 43.0 °F - 36.0 °F 76% 29.90 in 1.5 mi Calm Calm - N/A   Haze
12:55 AM 43.2 °F - 36.0 °F 76% 29.90 in 1.0 mi Calm Calm - N/A   Haze
1:15 AM 45.3 °F - 37.4 °F 74% 29.89 in 1.2 mi Calm Calm - N/A   Haze
1:35 AM 48.6 °F - 38.8 °F 69% 29.89 in 0.2 mi Calm Calm - N/A   Haze
1:55 AM 48.9 °F - 39.2 °F 69% 29.89 in 0.2 mi Calm Calm - N/A   Drizzle
2:15 AM 49.1 °F - 38.8 °F 68% 29.88 in 0.2 mi SW 3.5 mph - N/A   Haze
2:35 AM 50.0 °F - 38.8 °F 66% 29.88 in 0.2 mi Calm Calm - N/A   Haze
2:55 AM 51.3 °F - 38.5 °F 62% 29.87 in 0.5 mi Calm Calm - N/A   Haze
3:15 AM 52.7 °F - 38.3 °F 58% 29.87 in 0.5 mi WSW 4.6 mph - N/A   Haze
3:35 AM 53.1 °F - 37.9 °F 57% 29.87 in 0.5 mi West 4.6 mph - N/A   Haze
3:55 AM 53.2 °F - 37.4 °F 55% 29.88 in 0.5 mi Calm Calm - N/A   Haze
4:15 AM 53.2 °F - 36.5 °F 53% 29.88 in 0.5 mi Calm Calm - N/A   Haze
4:35 AM 53.6 °F - 35.1 °F 50% 29.88 in 0.5 mi Calm Calm - N/A   Haze
4:55 AM 54.0 °F - 34.0 °F 47% 29.88 in 0.5 mi SW 3.5 mph - N/A   Haze
5:15 AM 54.3 °F - 32.9 °F 44% 29.89 in 0.5 mi Calm Calm - N/A   Haze
5:35 AM 54.5 °F - 32.0 °F 42% 29.90 in 0.5 mi Calm Calm - N/A   Haze
5:55 AM 54.1 °F - 31.1 °F 41% 29.90 in 0.8 mi WSW 3.5 mph - N/A   Haze
6:15 AM 54.0 °F - 30.2 °F 40% 29.91 in 1.2 mi West 5.8 mph - N/A   Haze
6:35 AM 53.2 °F - 29.7 °F 40% 29.92 in 3.0 mi West 3.5 mph - N/A   Haze
6:55 AM 52.2 °F - 29.5 °F 42% 29.93 in 2.5 mi Calm Calm - N/A   Haze
7:15 AM 51.4 °F - 29.3 °F 43% 29.95 in 2.0 mi Calm Calm - N/A   Haze
7:35 AM 49.8 °F - 29.8 °F 46% 29.96 in 1.2 mi Calm Calm - N/A   Haze
7:55 AM 50.0 °F - 28.4 °F 43% 29.97 in 4.0 mi WNW 4.6 mph - N/A   Haze
8:15 AM 50.9 °F - 25.9 °F 38% 29.98 in 7.0 mi WNW 6.9 mph - N/A   Clear
8:35 AM 52.9 °F - 13.8 °F 21% 29.99 in 10.0 mi WNW 4.6 mph - N/A   Clear
8:55 AM 53.6 °F - -1.8 °F 10% 30.01 in 10.0 mi NW 10.4 mph 16.1 mph N/A   Clear
9:15 AM 53.6 °F - -8.9 °F 7% 30.01 in 10.0 mi NW 9.2 mph 17.3 mph N/A   Clear
9:35 AM - - - N/A% 30.02 in 10.0 mi NNW 17.3 mph 23.0 mph N/A   Clear
9:55 AM - - - N/A% 30.04 in 10.0 mi NNW 16.1 mph 21.9 mph N/A   Clear
10:15 AM - - - N/A% 30.05 in 10.0 mi NNW 16.1 mph 27.6 mph N/A   Clear
10:35 AM - - - N/A% 30.06 in 10.0 mi NNW 17.3 mph 23.0 mph N/A   Mostly Cloudy
10:55 AM - - - N/A% 30.07 in 10.0 mi NNW 15.0 mph 25.3 mph N/A   Overcast
11:15 AM 53.2 °F - -30.1 °F 4% 30.07 in 7.0 mi NNW 18.4 mph 26.5 mph N/A   Overcast
11:35 AM 52.2 °F - -10.5 °F 7% 30.08 in 7.0 mi NNW 18.4 mph 25.3 mph N/A   Overcast
11:55 AM 52.2 °F - -5.8 °F 9% 30.08 in 10.0 mi North 13.8 mph 23.0 mph N/A   Overcast
12:15 PM 52.0 °F - 0.1 °F 12% 30.09 in 10.0 mi North 16.1 mph 27.6 mph N/A   Overcast
12:35 PM 52.2 °F - 0.9 °F 12% 30.09 in 10.0 mi North 13.8 mph 24.2 mph N/A   Overcast
12:55 PM 53.2 °F - -4.2 °F 9% 30.08 in 10.0 mi North 15.0 mph 26.5 mph N/A   Overcast
1:15 PM 52.7 °F - 4.5 °F 14% 30.09 in 10.0 mi North 13.8 mph 23.0 mph N/A   Overcast
1:35 PM 51.8 °F - 11.5 °F 20% 30.09 in 10.0 mi North 16.1 mph 24.2 mph N/A   Overcast
1:55 PM 51.8 °F - 15.6 °F 24% 30.10 in 10.0 mi NNW 18.4 mph 21.9 mph N/A   Overcast
2:15 PM 50.9 °F - 18.7 °F 28% 30.11 in 7.0 mi North 18.4 mph 28.8 mph N/A   Overcast
2:35 PM 50.9 °F - 19.8 °F 29% 30.12 in 7.0 mi North 16.1 mph 25.3 mph N/A   Overcast
2:55 PM 50.9 °F - 18.7 °F 28% 30.12 in 10.0 mi NNW 17.3 mph 24.2 mph N/A   Overcast
3:15 PM 50.9 °F - 20.1 °F 30% 30.13 in 10.0 mi NNW 13.8 mph 21.9 mph N/A   Overcast
3:35 PM 51.3 °F - 18.3 °F 27% 30.13 in 10.0 mi NNW 17.3 mph 23.0 mph N/A   Overcast
3:55 PM 51.1 °F - 19.8 °F 29% 30.14 in 7.0 mi North 12.7 mph 20.7 mph N/A   Overcast
4:15 PM 50.9 °F - 21.7 °F 32% 30.14 in 7.0 mi North 17.3 mph 23.0 mph N/A   Overcast
4:35 PM 50.9 °F - 21.7 °F 32% 30.15 in 7.0 mi North 17.3 mph 23.0 mph N/A   Overcast
4:55 PM 50.4 °F - 23.2 °F 35% 30.17 in 7.0 mi NNW 16.1 mph 24.2 mph N/A   Overcast
5:15 PM 49.8 °F - 23.2 °F 35% 30.18 in 7.0 mi NNW 15.0 mph 23.0 mph N/A   Overcast
5:35 PM 49.1 °F - 23.5 °F 37% 30.20 in 7.0 mi North 11.5 mph 19.6 mph N/A   Mostly Cloudy
5:55 PM 47.7 °F - 25.0 °F 41% 30.20 in 7.0 mi North 11.5 mph 20.7 mph N/A   Scattered Clouds
6:15 PM 46.9 °F - 27.0 °F 46% 30.22 in 7.0 mi North 11.5 mph - N/A   Clear
6:35 PM 46.6 °F - 27.5 °F 47% 30.22 in 7.0 mi North 5.8 mph 16.1 mph N/A   Clear
6:55 PM 45.5 °F 42.5 °F 29.3 °F 53% 30.23 in 7.0 mi North 5.8 mph - N/A   Clear
7:15 PM 44.6 °F 42.2 °F 30.2 °F 57% 30.24 in 7.0 mi North 4.6 mph - N/A   Clear
7:35 PM 43.9 °F 39.9 °F 30.7 °F 60% 30.24 in 7.0 mi North 6.9 mph - N/A   Clear
7:55 PM 43.7 °F 39.1 °F 30.4 °F 59% 30.25 in 7.0 mi North 8.1 mph - N/A   Clear
8:15 PM 43.7 °F 38.6 °F 29.8 °F 58% 30.25 in 7.0 mi North 9.2 mph - N/A   Clear
8:35 PM 43.7 °F 39.1 °F 29.7 °F 58% 30.26 in 7.0 mi North 8.1 mph - N/A   Clear
8:55 PM 43.9 °F 38.8 °F 29.1 °F 56% 30.27 in 7.0 mi North 9.2 mph - N/A   Clear
9:15 PM 43.5 °F 38.9 °F 29.3 °F 57% 30.28 in 7.0 mi NNW 8.1 mph - N/A   Clear
9:35 PM 43.0 °F 38.2 °F 29.8 °F 60% 30.28 in 7.0 mi NNW 8.1 mph - N/A   Clear
9:55 PM 42.4 °F 37.5 °F 29.8 °F 61% 30.29 in 7.0 mi NNW 8.1 mph - N/A   Clear
10:15 PM 42.4 °F 37.5 °F 29.8 °F 61% 30.29 in 7.0 mi NNW 8.1 mph - N/A   Clear
10:35 PM 42.4 °F 37.0 °F 30.0 °F 61% 30.30 in 7.0 mi NNW 9.2 mph - N/A   Clear
10:55 PM 42.3 °F 36.3 °F 30.2 °F 62% 30.30 in 7.0 mi NNW 10.4 mph - N/A   Clear
11:15 PM 42.3 °F 36.3 °F 29.8 °F 61% 30.30 in 7.0 mi NNW 10.4 mph - N/A   Clear
11:35 PM 42.4 °F 37.0 °F 29.3 °F 60% 30.30 in 7.0 mi NNW 9.2 mph - N/A   Clear
11:55 PM 42.3 °F 37.3 °F 29.1 °F 60% 30.31 in 7.0 mi NNW 8.1 mph - N/A   Clear